| time (UTC) | temp F | wind direction | speed MPH | gust MPH | rain 1hr in | rain 24hr in | rain mn in | humidity % | barometer mb |
| 20260506215031 | 58 | 0 | 0.0 | 5.0 | 0.01 | 0.25 | 0.25 | 96 | 1006.7 |
| 20260506214559 | 58 | 194 | 0.0 | 5.0 | 0.01 | 0.25 | 0.25 | 96 | 1006.7 |
| 20260506214030 | 58 | 172 | 0.0 | 5.0 | 0.02 | 0.25 | 0.25 | 96 | 1006.8 |
| 20260506213531 | 58 | 174 | 1.0 | 6.0 | 0.03 | 0.25 | 0.25 | 96 | 1006.8 |
| 20260506213044 | 58 | 0 | 0.0 | 6.0 | 0.04 | 0.25 | 0.25 | 96 | 1006.8 |
| 20260506212531 | 58 | 178 | 0.0 | 4.0 | 0.05 | 0.25 | 0.25 | 96 | 1006.8 |
| 20260506212033 | 58 | 0 | 0.0 | 5.0 | 0.05 | 0.25 | 0.25 | 96 | 1006.9 |
| 20260506211538 | 58 | 197 | 0.0 | 5.0 | 0.05 | 0.25 | 0.25 | 96 | 1006.9 |
| 20260506211032 | 58 | 184 | 0.0 | 5.0 | 0.05 | 0.25 | 0.25 | 96 | 1007.1 |
| 20260506210532 | 58 | 0 | 1.0 | 5.0 | 0.05 | 0.25 | 0.25 | 96 | 1007.0 |
| 20260506210044 | 58 | 189 | 0.0 | 4.0 | 0.05 | 0.24 | 0.24 | 96 | 1007.1 |
| 20260506205531 | 58 | 172 | 0.0 | 5.0 | 0.05 | 0.24 | 0.24 | 96 | 1007.3 |
| 20260506205032 | 58 | 208 | 1.0 | 5.0 | 0.05 | 0.24 | 0.24 | 95 | 1007.3 |
| 20260506204544 | 58 | 173 | 0.0 | 5.0 | 0.05 | 0.24 | 0.24 | 95 | 1007.4 |
| 20260506204029 | 58 | 0 | 0.0 | 5.0 | 0.05 | 0.23 | 0.23 | 95 | 1007.5 |
| 20260506203531 | 58 | 183 | 0.0 | 5.0 | 0.04 | 0.22 | 0.22 | 95 | 1007.4 |
| 20260506203047 | 58 | 181 | 1.0 | 5.0 | 0.03 | 0.21 | 0.21 | 95 | 1007.3 |
| 20260506202534 | 58 | 0 | 0.0 | 5.0 | 0.02 | 0.20 | 0.20 | 95 | 1007.4 |
| 20260506202031 | 58 | 172 | 1.0 | 6.0 | 0.02 | 0.20 | 0.20 | 95 | 1007.5 |
| 20260506201544 | 58 | 167 | 1.0 | 6.0 | 0.02 | 0.20 | 0.20 | 95 | 1007.5 |
| 20260506201033 | 58 | 0 | 0.0 | 5.0 | 0.02 | 0.20 | 0.20 | 95 | 1007.4 |
| 20260506200531 | 58 | 0 | 0.0 | 6.0 | 0.03 | 0.20 | 0.20 | 95 | 1007.5 |
| 20260506200041 | 58 | 187 | 0.0 | 6.0 | 0.02 | 0.19 | 0.19 | 95 | 1007.5 |
| 20260506195531 | 58 | 148 | 0.0 | 4.0 | 0.02 | 0.19 | 0.19 | 95 | 1007.6 |
| 20260506195031 | 58 | 0 | 0.0 | 4.0 | 0.03 | 0.19 | 0.19 | 95 | 1007.7 |
| 20260506194558 | 58 | 171 | 0.0 | 4.0 | 0.03 | 0.19 | 0.19 | 95 | 1007.7 |
| 20260506194035 | 58 | 0 | 1.0 | 5.0 | 0.02 | 0.18 | 0.18 | 95 | 1007.7 |
| 20260506193533 | 58 | 219 | 0.0 | 6.0 | 0.03 | 0.18 | 0.18 | 95 | 1007.7 |
| 20260506193043 | 58 | 0 | 1.0 | 6.0 | 0.03 | 0.18 | 0.18 | 94 | 1007.9 |
| 20260506192531 | 58 | 0 | 0.0 | 5.0 | 0.04 | 0.18 | 0.18 | 94 | 1007.9 |
| 20260506192032 | 58 | 164 | 1.0 | 5.0 | 0.04 | 0.18 | 0.18 | 94 | 1007.9 |
| 20260506191545 | 58 | 163 | 0.0 | 4.0 | 0.04 | 0.18 | 0.18 | 94 | 1007.8 |
| 20260506191028 | 58 | 164 | 1.0 | 6.0 | 0.05 | 0.18 | 0.18 | 94 | 1008.0 |
| 20260506190535 | 58 | 0 | 0.0 | 6.0 | 0.04 | 0.17 | 0.17 | 94 | 1008.0 |
| 20260506190044 | 59 | 175 | 1.0 | 7.0 | 0.04 | 0.17 | 0.17 | 94 | 1008.0 |
| 20260506185531 | 59 | 178 | 0.0 | 7.0 | 0.05 | 0.17 | 0.17 | 94 | 1008.0 |
| 20260506185031 | 59 | 221 | 2.0 | 7.0 | 0.04 | 0.16 | 0.16 | 94 | 1008.2 |
| 20260506184545 | 59 | 171 | 0.0 | 6.0 | 0.05 | 0.16 | 0.16 | 94 | 1008.3 |
| 20260506184032 | 59 | 185 | 1.0 | 6.0 | 0.06 | 0.16 | 0.16 | 93 | 1008.4 |
| 20260506183531 | 59 | 32 | 0.0 | 4.0 | 0.06 | 0.15 | 0.15 | 93 | 1008.4 |
| 20260506183047 | 59 | 0 | 0.0 | 3.0 | 0.07 | 0.15 | 0.15 | 93 | 1008.4 |
| 20260506182530 | 59 | 0 | 0.0 | 3.0 | 0.07 | 0.14 | 0.14 | 93 | 1008.4 |
| 20260506182034 | 59 | 0 | 0.0 | 5.0 | 0.09 | 0.14 | 0.14 | 92 | 1008.2 |
| 20260506181547 | 59 | 0 | 0.0 | 5.0 | 0.11 | 0.14 | 0.14 | 92 | 1008.0 |
| 20260506181032 | 59 | 184 | 0.0 | 3.0 | 0.12 | 0.13 | 0.13 | 92 | 1008.2 |
| 20260506180531 | 59 | 171 | 0.0 | 3.0 | 0.12 | 0.13 | 0.13 | 92 | 1008.2 |
| 20260506180051 | 60 | 0 | 1.0 | 3.0 | 0.13 | 0.13 | 0.13 | 91 | 1008.2 |
| 20260506175536 | 60 | 0 | 0.0 | 3.0 | 0.12 | 0.12 | 0.12 | 91 | 1008.4 |
| 20260506175033 | 60 | 0 | 0.0 | 1.0 | 0.11 | 0.11 | 0.11 | 91 | 1008.7 |
| 20260506174553 | 60 | 0 | 0.0 | 1.0 | 0.11 | 0.11 | 0.11 | 91 | 1008.7 |
| 20260506174033 | 60 | 0 | 0.0 | 2.0 | 0.10 | 0.10 | 0.10 | 90 | 1008.9 |
| 20260506173535 | 61 | 0 | 0.0 | 2.0 | 0.09 | 0.09 | 0.09 | 89 | 1009.0 |
| 20260506173048 | 61 | 177 | 0.0 | 3.0 | 0.07 | 0.07 | 0.07 | 88 | 1009.1 |
| 20260506172533 | 61 | 0 | 0.0 | 3.0 | 0.06 | 0.06 | 0.06 | 87 | 1009.3 |
| 20260506172033 | 62 | 0 | 0.0 | 2.0 | 0.05 | 0.05 | 0.05 | 86 | 1009.2 |
| 20260506171553 | 62 | 173 | 0.0 | 3.0 | 0.03 | 0.03 | 0.03 | 85 | 1009.1 |
| 20260506171038 | 63 | 0 | 0.0 | 7.0 | 0.01 | 0.01 | 0.01 | 83 | 1009.4 |
| 20260506170535 | 63 | 180 | 0.0 | 7.0 | 0.00 | 0.00 | 0.00 | 83 | 1009.5 |
| 20260506170055 | 64 | 163 | 0.0 | 5.0 | 0.00 | 0.00 | 0.00 | 81 | 1009.5 |
| 20260506165536 | 64 | 174 | 0.0 | 9.0 | 0.00 | 0.00 | 0.00 | 80 | 1009.5 |
| 20260506165035 | 65 | 176 | 1.0 | 10.0 | 0.00 | 0.00 | 0.00 | 77 | 1009.4 |
| 20260506164543 | 65 | 150 | 2.0 | 10.0 | 0.00 | 0.00 | 0.00 | 76 | 1009.3 |
| 20260506164034 | 65 | 172 | 1.0 | 6.0 | 0.00 | 0.00 | 0.00 | 75 | 1009.3 |
| 20260506163531 | 66 | 191 | 2.0 | 8.0 | 0.00 | 0.00 | 0.00 | 75 | 1009.2 |
| 20260506163048 | 66 | 159 | 2.0 | 8.0 | 0.00 | 0.00 | 0.00 | 75 | 1009.2 |
| 20260506162533 | 66 | 148 | 2.0 | 7.0 | 0.00 | 0.00 | 0.00 | 74 | 1009.1 |
| 20260506162033 | 66 | 180 | 2.0 | 11.0 | 0.00 | 0.00 | 0.00 | 74 | 1009.2 |
| 20260506161546 | 66 | 166 | 2.0 | 11.0 | 0.00 | 0.00 | 0.00 | 74 | 1009.3 |
| 20260506161033 | 66 | 167 | 1.0 | 8.0 | 0.00 | 0.00 | 0.00 | 74 | 1009.4 |
| 20260506160533 | 66 | 223 | 1.0 | 8.0 | 0.00 | 0.00 | 0.00 | 74 | 1009.5 |
| 20260506160045 | 66 | 194 | 1.0 | 10.0 | 0.00 | 0.00 | 0.00 | 74 | 1009.5 |
| 20260506155533 | 66 | 0 | 2.0 | 10.0 | 0.00 | 0.00 | 0.00 | 74 | 1009.6 |
| 20260506155036 | 66 | 161 | 1.0 | 12.0 | 0.00 | 0.00 | 0.00 | 73 | 1009.6 |
| 20260506154607 | 66 | 197 | 2.0 | 12.0 | 0.00 | 0.00 | 0.00 | 73 | 1009.7 |
| 20260506154033 | 67 | 250 | 2.0 | 10.0 | 0.00 | 0.00 | 0.00 | 72 | 1009.5 |
| 20260506153532 | 67 | 247 | 2.0 | 10.0 | 0.00 | 0.00 | 0.00 | 72 | 1009.5 |
| 20260506153045 | 67 | 181 | 1.0 | 8.0 | 0.00 | 0.00 | 0.00 | 72 | 1009.4 |
| 20260506152533 | 67 | 195 | 1.0 | 5.0 | 0.00 | 0.00 | 0.00 | 72 | 1009.5 |
| 20260506152033 | 67 | 153 | 0.0 | 7.0 | 0.00 | 0.00 | 0.00 | 73 | 1009.4 |
| 20260506151545 | 67 | 171 | 1.0 | 7.0 | 0.00 | 0.00 | 0.00 | 72 | 1009.6 |
| 20260506151032 | 67 | 180 | 0.0 | 6.0 | 0.00 | 0.00 | 0.00 | 72 | 1009.4 |
| 20260506150534 | 67 | 160 | 2.0 | 10.0 | 0.00 | 0.00 | 0.00 | 72 | 1009.4 |
| 20260506150051 | 67 | 158 | 1.0 | 11.0 | 0.00 | 0.00 | 0.00 | 73 | 1009.5 |
| 20260506145538 | 67 | 140 | 1.0 | 12.0 | 0.00 | 0.00 | 0.00 | 73 | 1009.5 |
| 20260506145110 | 66 | 166 | 1.0 | 12.0 | 0.00 | 0.00 | 0.00 | 74 | 1009.6 |
| 20260506144559 | 66 | 170 | 3.0 | 12.0 | 0.00 | 0.00 | 0.00 | 72 | 1009.7 |
| 20260506144033 | 67 | 161 | 1.0 | 12.0 | 0.00 | 0.00 | 0.00 | 73 | 1009.8 |
| 20260506143533 | 67 | 194 | 3.0 | 12.0 | 0.00 | 0.00 | 0.00 | 73 | 1009.8 |
| 20260506143044 | 67 | 172 | 2.0 | 8.0 | 0.00 | 0.00 | 0.00 | 74 | 1009.8 |
| 20260506142532 | 67 | 188 | 1.0 | 8.0 | 0.00 | 0.00 | 0.00 | 75 | 1009.7 |
| 20260506142031 | 66 | 219 | 1.0 | 8.0 | 0.00 | 0.00 | 0.00 | 75 | 1009.7 |
| 20260506141542 | 66 | 175 | 2.0 | 8.0 | 0.00 | 0.00 | 0.00 | 75 | 1009.8 |
| 20260506141031 | 65 | 178 | 2.0 | 7.0 | 0.00 | 0.00 | 0.00 | 76 | 1009.9 |
| 20260506140531 | 65 | 194 | 1.0 | 10.0 | 0.00 | 0.00 | 0.00 | 76 | 1010.0 |
| 20260506140054 | 65 | 167 | 2.0 | 10.0 | 0.00 | 0.00 | 0.00 | 76 | 1010.1 |
| 20260506135531 | 65 | 160 | 2.0 | 7.0 | 0.00 | 0.00 | 0.00 | 77 | 1009.9 |
| 20260506135031 | 65 | 0 | 0.0 | 5.0 | 0.00 | 0.00 | 0.00 | 78 | 1009.6 |
| 20260506134547 | 65 | 167 | 1.0 | 10.0 | 0.00 | 0.00 | 0.00 | 78 | 1009.9 |
| 20260506134045 | 64 | 164 | 1.0 | 10.0 | 0.00 | 0.00 | 0.00 | 78 | 1009.5 |
| 20260506133531 | 64 | 161 | 3.0 | 10.0 | 0.00 | 0.00 | 0.00 | 77 | 1009.4 |
| 20260506133049 | 64 | 169 | 2.0 | 6.0 | 0.00 | 0.00 | 0.00 | 79 | 1009.7 |
| 20260506132531 | 64 | 184 | 2.0 | 7.0 | 0.00 | 0.00 | 0.00 | 79 | 1009.9 |
| 20260506132030 | 64 | 170 | 0.0 | 7.0 | 0.00 | 0.00 | 0.00 | 80 | 1009.8 |
| 20260506131543 | 63 | 164 | 1.0 | 7.0 | 0.00 | 0.00 | 0.00 | 80 | 1009.9 |
| 20260506131031 | 63 | 199 | 2.0 | 7.0 | 0.00 | 0.00 | 0.00 | 81 | 1009.8 |
| 20260506130532 | 63 | 163 | 2.0 | 7.0 | 0.00 | 0.00 | 0.00 | 81 | 1009.8 |
| 20260506130046 | 63 | 180 | 1.0 | 7.0 | 0.00 | 0.00 | 0.00 | 81 | 1010.0 |
| 20260506125532 | 62 | 152 | 2.0 | 7.0 | 0.00 | 0.00 | 0.00 | 82 | 1010.2 |
| 20260506125030 | 62 | 184 | 1.0 | 7.0 | 0.00 | 0.00 | 0.00 | 82 | 1010.5 |
| 20260506124545 | 62 | 161 | 1.0 | 10.0 | 0.00 | 0.00 | 0.00 | 82 | 1010.6 |
| 20260506124031 | 62 | 171 | 1.0 | 10.0 | 0.00 | 0.00 | 0.00 | 83 | 1010.6 |
| 20260506123531 | 62 | 178 | 2.0 | 10.0 | 0.00 | 0.00 | 0.00 | 82 | 1010.7 |
| 20260506123041 | 62 | 0 | 1.0 | 10.0 | 0.00 | 0.00 | 0.00 | 83 | 1010.9 |
| 20260506122532 | 61 | 163 | 3.0 | 10.0 | 0.00 | 0.00 | 0.00 | 83 | 1010.7 |
| 20260506122031 | 61 | 180 | 1.0 | 8.0 | 0.00 | 0.00 | 0.00 | 84 | 1010.7 |
| 20260506121545 | 60 | 205 | 2.0 | 9.0 | 0.00 | 0.00 | 0.00 | 84 | 1010.6 |
| 20260506121034 | 60 | 166 | 2.0 | 9.0 | 0.00 | 0.00 | 0.00 | 84 | 1010.5 |
| 20260506120537 | 60 | 197 | 2.0 | 9.0 | 0.00 | 0.00 | 0.00 | 84 | 1010.5 |
| 20260506120049 | 60 | 182 | 2.0 | 9.0 | 0.00 | 0.00 | 0.00 | 84 | 1010.6 |
| 20260506115532 | 60 | 163 | 1.0 | 10.0 | 0.00 | 0.00 | 0.00 | 84 | 1010.6 |
| 20260506115032 | 60 | 0 | 2.0 | 10.0 | 0.00 | 0.00 | 0.00 | 85 | 1010.5 |
| 20260506114548 | 60 | 169 | 0.0 | 11.0 | 0.00 | 0.00 | 0.00 | 85 | 1010.7 |
| 20260506114031 | 60 | 173 | 3.0 | 11.0 | 0.00 | 0.00 | 0.00 | 85 | 1010.6 |
| 20260506113531 | 60 | 156 | 1.0 | 9.0 | 0.00 | 0.00 | 0.00 | 85 | 1010.4 |
| 20260506113049 | 59 | 173 | 1.0 | 10.0 | 0.00 | 0.00 | 0.00 | 85 | 1010.2 |
| 20260506112532 | 59 | 148 | 3.0 | 10.0 | 0.00 | 0.00 | 0.00 | 86 | 1010.4 |
| 20260506112031 | 59 | 174 | 2.0 | 6.0 | 0.00 | 0.00 | 0.00 | 86 | 1010.6 |
| 20260506111543 | 59 | 187 | 1.0 | 5.0 | 0.00 | 0.00 | 0.00 | 86 | 1010.9 |
| 20260506111033 | 59 | 182 | 1.0 | 6.0 | 0.00 | 0.00 | 0.00 | 86 | 1010.8 |
| 20260506110533 | 59 | 140 | 1.0 | 8.0 | 0.00 | 0.00 | 0.00 | 87 | 1010.7 |
| 20260506110039 | 58 | 159 | 1.0 | 8.0 | 0.00 | 0.00 | 0.00 | 87 | 1010.6 |
| 20260506105530 | 58 | 174 | 2.0 | 5.0 | 0.00 | 0.00 | 0.00 | 87 | 1010.6 |
| 20260506105031 | 58 | 0 | 1.0 | 5.0 | 0.00 | 0.00 | 0.00 | 86 | 1010.4 |
| 20260506104553 | 58 | 185 | 1.0 | 6.0 | 0.00 | 0.00 | 0.00 | 87 | 1010.8 |
| 20260506104030 | 58 | 0 | 1.0 | 9.0 | 0.00 | 0.00 | 0.00 | 87 | 1010.7 |
| 20260506103533 | 58 | 180 | 2.0 | 9.0 | 0.00 | 0.00 | 0.00 | 87 | 1010.5 |
| 20260506103044 | 58 | 172 | 1.0 | 9.0 | 0.00 | 0.00 | 0.00 | 87 | 1010.4 |
| 20260506102534 | 58 | 0 | 0.0 | 5.0 | 0.00 | 0.00 | 0.00 | 87 | 1010.4 |
| 20260506102034 | 58 | 198 | 1.0 | 5.0 | 0.00 | 0.00 | 0.00 | 87 | 1010.4 |
| 20260506101550 | 58 | 0 | 0.0 | 6.0 | 0.00 | 0.00 | 0.00 | 86 | 1010.5 |
| 20260506101032 | 58 | 187 | 1.0 | 6.0 | 0.00 | 0.00 | 0.00 | 86 | 1010.4 |
| 20260506100533 | 58 | 175 | 0.0 | 7.0 | 0.00 | 0.00 | 0.00 | 86 | 1010.3 |
| 20260506100043 | 58 | 0 | 2.0 | 7.0 | 0.00 | 0.00 | 0.00 | 86 | 1010.3 |
| 20260506095535 | 58 | 190 | 2.0 | 6.0 | 0.00 | 0.00 | 0.00 | 86 | 1010.2 |
| 20260506095033 | 58 | 204 | 1.0 | 6.0 | 0.00 | 0.00 | 0.00 | 86 | 1010.1 |
| 20260506094544 | 58 | 205 | 0.0 | 6.0 | 0.00 | 0.00 | 0.00 | 85 | 1010.1 |
| 20260506094033 | 58 | 176 | 1.0 | 7.0 | 0.00 | 0.00 | 0.00 | 85 | 1010.1 |
| 20260506093531 | 58 | 0 | 0.0 | 7.0 | 0.00 | 0.00 | 0.00 | 85 | 1010.2 |
| 20260506093046 | 58 | 163 | 2.0 | 9.0 | 0.00 | 0.00 | 0.00 | 85 | 1010.3 |
| 20260506092533 | 59 | 167 | 2.0 | 9.0 | 0.00 | 0.00 | 0.00 | 85 | 1010.2 |
| 20260506092033 | 59 | 185 | 1.0 | 6.0 | 0.00 | 0.00 | 0.00 | 85 | 1010.2 |
| 20260506091544 | 59 | 162 | 1.0 | 7.0 | 0.00 | 0.00 | 0.00 | 84 | 1010.2 |
| 20260506091034 | 59 | 186 | 3.0 | 7.0 | 0.00 | 0.00 | 0.00 | 84 | 1010.1 |
| 20260506090533 | 59 | 0 | 1.0 | 6.0 | 0.00 | 0.00 | 0.00 | 84 | 1010.2 |
| 20260506090043 | 59 | 167 | 1.0 | 7.0 | 0.00 | 0.00 | 0.00 | 84 | 1010.3 |
| 20260506085532 | 59 | 188 | 1.0 | 7.0 | 0.00 | 0.00 | 0.00 | 84 | 1010.2 |
| 20260506085030 | 59 | 153 | 1.0 | 7.0 | 0.00 | 0.00 | 0.00 | 84 | 1010.3 |
| 20260506084545 | 59 | 240 | 1.0 | 7.0 | 0.00 | 0.00 | 0.00 | 84 | 1010.4 |
| 20260506084034 | 59 | 173 | 1.0 | 7.0 | 0.00 | 0.00 | 0.00 | 84 | 1010.4 |
| 20260506083534 | 59 | 167 | 1.0 | 4.0 | 0.00 | 0.00 | 0.00 | 84 | 1010.4 |
| 20260506083044 | 59 | 173 | 1.0 | 4.0 | 0.00 | 0.00 | 0.00 | 83 | 1010.3 |
| 20260506082535 | 59 | 0 | 1.0 | 9.0 | 0.00 | 0.00 | 0.00 | 83 | 1010.2 |
| 20260506082032 | 59 | 173 | 0.0 | 9.0 | 0.00 | 0.00 | 0.00 | 83 | 1010.3 |
| 20260506081543 | 59 | 178 | 1.0 | 6.0 | 0.00 | 0.00 | 0.00 | 83 | 1010.2 |
| 20260506081035 | 59 | 196 | 0.0 | 7.0 | 0.00 | 0.00 | 0.00 | 83 | 1010.2 |
| 20260506080533 | 59 | 221 | 3.0 | 8.0 | 0.00 | 0.00 | 0.00 | 83 | 1010.3 |
| 20260506073048 | 59 | 168 | 1.0 | 5.0 | 0.00 | 0.00 | 0.00 | 82 | 1010.4 |
| 20260506072531 | 59 | 182 | 0.0 | 6.0 | 0.00 | 0.00 | 0.00 | 82 | 1010.4 |
| 20260506072031 | 59 | 207 | 1.0 | 7.0 | 0.00 | 0.00 | 0.00 | 81 | 1010.5 |
| 20260506071544 | 59 | 182 | 1.0 | 7.0 | 0.00 | 0.00 | 0.00 | 81 | 1010.5 |
| 20260506071033 | 59 | 178 | 1.0 | 6.0 | 0.00 | 0.00 | 0.00 | 81 | 1010.3 |
| 20260506070533 | 60 | 200 | 1.0 | 9.0 | 0.00 | 0.00 | 0.00 | 81 | 1010.3 |
| 20260506062033 | 60 | 185 | 1.0 | 6.0 | 0.00 | 0.00 | 0.00 | 80 | 1010.2 |
| 20260506061548 | 60 | 183 | 1.0 | 6.0 | 0.00 | 0.00 | 0.00 | 80 | 1010.2 |
| 20260506061034 | 60 | 166 | 1.0 | 8.0 | 0.00 | 0.00 | 0.00 | 80 | 1010.3 |
| 20260506060532 | 60 | 186 | 2.0 | 8.0 | 0.00 | 0.00 | 0.00 | 79 | 1010.2 |
| 20260506051035 | 61 | 173 | 1.0 | 9.0 | 0.00 | 0.00 | 0.00 | 77 | 1010.8 |
| 20260506050532 | 62 | 174 | 2.0 | 9.0 | 0.00 | 0.00 | 0.00 | 77 | 1010.8 |
| 20260506045035 | 62 | 175 | 1.0 | 7.0 | 0.00 | 0.00 | 0.00 | 76 | 1010.8 |
| 20260506044608 | 62 | 174 | 1.0 | 8.0 | 0.00 | 0.00 | 0.00 | 76 | 1010.9 |
| 20260506044032 | 62 | 186 | 1.0 | 10.0 | 0.00 | 0.00 | 0.00 | 76 | 1010.9 |
| 20260506043530 | 62 | 213 | 2.0 | 10.0 | 0.00 | 0.00 | 0.00 | 76 | 1010.9 |
| 20260506043043 | 63 | 127 | 2.0 | 9.0 | 0.00 | 0.00 | 0.00 | 75 | 1011.0 |
| 20260506042534 | 63 | 179 | 2.0 | 9.0 | 0.00 | 0.00 | 0.00 | 75 | 1011.0 |
| 20260506042031 | 63 | 194 | 1.0 | 7.0 | 0.00 | 0.00 | 0.00 | 75 | 1010.9 |
| 20260506041548 | 63 | 184 | 1.0 | 7.0 | 0.00 | 0.00 | 0.00 | 74 | 1010.9 |
| 20260506041033 | 63 | 177 | 1.0 | 7.0 | 0.00 | 0.00 | 0.00 | 74 | 1010.9 |
| 20260506040533 | 63 | 207 | 2.0 | 7.0 | 0.00 | 0.00 | 0.00 | 74 | 1011.0 |
| 20260506040047 | 63 | 173 | 1.0 | 9.0 | 0.00 | 0.00 | 0.00 | 73 | 1011.0 |
| 20260506035533 | 63 | 0 | 2.0 | 9.0 | 0.00 | 0.00 | 0.00 | 73 | 1010.9 |
| 20260506035033 | 63 | 0 | 2.0 | 8.0 | 0.00 | 0.00 | 0.00 | 72 | 1010.9 |
| 20260506034539 | 63 | 192 | 1.0 | 19.0 | 0.00 | 0.00 | 0.00 | 72 | 1011.0 |
| 20260506034034 | 63 | 178 | 2.0 | 19.0 | 0.00 | 0.00 | 0.00 | 71 | 1011.0 |
| 20260506033533 | 63 | 174 | 3.0 | 19.0 | 0.00 | 0.00 | 0.00 | 71 | 1011.1 |
| 20260506033045 | 63 | 178 | 2.0 | 8.0 | 0.00 | 0.00 | 0.00 | 71 | 1011.0 |
| 20260506032533 | 63 | 205 | 1.0 | 6.0 | 0.00 | 0.00 | 0.00 | 70 | 1011.0 |
| 20260506032033 | 63 | 169 | 1.0 | 6.0 | 0.00 | 0.00 | 0.00 | 70 | 1011.0 |
| 20260506031544 | 63 | 181 | 1.0 | 6.0 | 0.00 | 0.00 | 0.00 | 70 | 1011.0 |
| 20260506031032 | 63 | 193 | 2.0 | 7.0 | 0.00 | 0.00 | 0.00 | 70 | 1010.9 |
| 20260506030533 | 63 | 0 | 1.0 | 7.0 | 0.00 | 0.00 | 0.00 | 70 | 1010.9 |
| 20260506030044 | 63 | 169 | 1.0 | 8.0 | 0.00 | 0.00 | 0.00 | 69 | 1010.7 |
| 20260506025532 | 63 | 169 | 1.0 | 9.0 | 0.00 | 0.00 | 0.00 | 69 | 1010.8 |
| 20260506025033 | 63 | 163 | 2.0 | 9.0 | 0.00 | 0.00 | 0.00 | 69 | 1010.8 |
| 20260506024545 | 63 | 173 | 2.0 | 9.0 | 0.00 | 0.00 | 0.00 | 70 | 1010.8 |
| 20260506024032 | 63 | 166 | 1.0 | 11.0 | 0.00 | 0.00 | 0.00 | 69 | 1010.6 |
| 20260506023534 | 63 | 178 | 2.0 | 11.0 | 0.00 | 0.00 | 0.00 | 69 | 1010.7 |
| 20260506023055 | 63 | 176 | 2.0 | 7.0 | 0.00 | 0.00 | 0.00 | 69 | 1010.8 |
| 20260506022533 | 63 | 183 | 2.0 | 9.0 | 0.00 | 0.00 | 0.00 | 69 | 1010.7 |
| 20260506022033 | 63 | 159 | 3.0 | 9.0 | 0.00 | 0.00 | 0.00 | 69 | 1010.8 |
| 20260506021550 | 63 | 151 | 2.0 | 8.0 | 0.00 | 0.00 | 0.00 | 69 | 1010.8 |
| 20260506021031 | 63 | 165 | 2.0 | 10.0 | 0.00 | 0.00 | 0.00 | 69 | 1010.8 |
| 20260506020532 | 63 | 0 | 2.0 | 10.0 | 0.00 | 0.00 | 0.00 | 69 | 1010.8 |
| 20260506020047 | 63 | 189 | 3.0 | 10.0 | 0.00 | 0.00 | 0.00 | 69 | 1010.7 |
| 20260506015535 | 63 | 172 | 3.0 | 12.0 | 0.00 | 0.00 | 0.00 | 69 | 1010.7 |
| 20260506015034 | 63 | 183 | 2.0 | 12.0 | 0.00 | 0.00 | 0.00 | 69 | 1010.6 |
| 20260506014545 | 63 | 170 | 2.0 | 7.0 | 0.00 | 0.00 | 0.00 | 69 | 1010.5 |
| 20260506014032 | 63 | 176 | 1.0 | 9.0 | 0.00 | 0.00 | 0.00 | 68 | 1010.5 |
| 20260506013532 | 63 | 194 | 1.0 | 9.0 | 0.00 | 0.00 | 0.00 | 68 | 1010.4 |
| 20260506013043 | 63 | 184 | 1.0 | 6.0 | 0.00 | 0.00 | 0.00 | 68 | 1010.4 |
| 20260506012532 | 63 | 162 | 1.0 | 6.0 | 0.00 | 0.00 | 0.00 | 68 | 1010.4 |
| 20260506012032 | 63 | 171 | 1.0 | 6.0 | 0.00 | 0.00 | 0.00 | 67 | 1010.3 |
| 20260506011545 | 63 | 154 | 1.0 | 5.0 | 0.00 | 0.00 | 0.00 | 67 | 1010.3 |
| 20260506011032 | 64 | 0 | 0.0 | 5.0 | 0.00 | 0.00 | 0.00 | 67 | 1010.1 |
| 20260506010532 | 64 | 171 | 1.0 | 7.0 | 0.00 | 0.00 | 0.00 | 67 | 1010.1 |
| 20260506010051 | 64 | 185 | 1.0 | 7.0 | 0.00 | 0.00 | 0.00 | 66 | 1010.1 |
| 20260506005533 | 64 | 242 | 2.0 | 9.0 | 0.00 | 0.00 | 0.00 | 66 | 1010.2 |
| 20260506005033 | 64 | 191 | 1.0 | 9.0 | 0.00 | 0.00 | 0.00 | 65 | 1010.2 |
| 20260506004550 | 64 | 0 | 1.0 | 11.0 | 0.00 | 0.00 | 0.00 | 65 | 1010.3 |
| 20260506004033 | 64 | 161 | 1.0 | 11.0 | 0.00 | 0.00 | 0.00 | 64 | 1010.0 |
| 20260506003533 | 65 | 112 | 2.0 | 7.0 | 0.00 | 0.00 | 0.00 | 64 | 1009.8 |
| 20260506003044 | 65 | 169 | 1.0 | 7.0 | 0.00 | 0.00 | 0.00 | 64 | 1009.7 |
| 20260506002533 | 65 | 185 | 2.0 | 8.0 | 0.00 | 0.00 | 0.00 | 64 | 1009.7 |
| 20260506002032 | 65 | 180 | 2.0 | 9.0 | 0.00 | 0.00 | 0.00 | 64 | 1009.5 |
| 20260506001548 | 65 | 147 | 1.0 | 9.0 | 0.00 | 0.00 | 0.00 | 64 | 1009.5 |
| 20260506001033 | 65 | 188 | 1.0 | 7.0 | 0.00 | 0.00 | 0.00 | 64 | 1009.5 |
| 20260506000533 | 66 | 0 | 1.0 | 9.0 | 0.00 | 0.00 | 0.00 | 64 | 1009.5 |
| 20260506000045 | 66 | 166 | 2.0 | 9.0 | 0.00 | 0.00 | 0.00 | 64 | 1009.4 |
| 20260505235532 | 66 | 166 | 2.0 | 9.0 | 0.00 | 0.00 | 0.00 | 64 | 1009.4 |
| 20260505235032 | 66 | 176 | 2.0 | 9.0 | 0.00 | 0.00 | 0.00 | 63 | 1009.3 |
| 20260505234603 | 66 | 162 | 1.0 | 8.0 | 0.00 | 0.00 | 0.00 | 63 | 1009.1 |
| 20260505234035 | 67 | 159 | 3.0 | 8.0 | 0.00 | 0.00 | 0.00 | 62 | 1009.0 |
| 20260505233532 | 67 | 196 | 3.0 | 8.0 | 0.00 | 0.00 | 0.00 | 62 | 1009.0 |
| 20260505233044 | 67 | 178 | 2.0 | 10.0 | 0.00 | 0.00 | 0.00 | 61 | 1009.0 |
| 20260505232532 | 68 | 192 | 2.0 | 11.0 | 0.00 | 0.00 | 0.00 | 61 | 1008.9 |
| 20260505232036 | 68 | 148 | 2.0 | 11.0 | 0.00 | 0.00 | 0.00 | 60 | 1008.9 |
| 20260505231549 | 69 | 163 | 2.0 | 8.0 | 0.00 | 0.00 | 0.00 | 60 | 1008.8 |
| 20260505231033 | 69 | 184 | 2.0 | 8.0 | 0.00 | 0.00 | 0.00 | 59 | 1008.7 |
| 20260505230533 | 69 | 111 | 1.0 | 9.0 | 0.00 | 0.00 | 0.00 | 59 | 1008.7 |
| 20260505230044 | 69 | 190 | 2.0 | 9.0 | 0.00 | 0.00 | 0.00 | 59 | 1008.6 |
| 20260505225533 | 70 | 163 | 2.0 | 9.0 | 0.00 | 0.00 | 0.00 | 58 | 1008.6 |
| 20260505225035 | 70 | 172 | 2.0 | 10.0 | 0.00 | 0.00 | 0.00 | 58 | 1008.3 |
| 20260505224546 | 70 | 130 | 2.0 | 14.0 | 0.00 | 0.00 | 0.00 | 57 | 1008.2 |
| 20260505224035 | 71 | 169 | 4.0 | 14.0 | 0.00 | 0.00 | 0.00 | 57 | 1008.3 |
| 20260505223532 | 71 | 138 | 4.0 | 14.0 | 0.00 | 0.00 | 0.00 | 57 | 1008.1 |
| 20260505223046 | 71 | 138 | 1.0 | 11.0 | 0.00 | 0.00 | 0.00 | 57 | 1008.0 |
| 20260505222535 | 72 | 202 | 3.0 | 11.0 | 0.00 | 0.00 | 0.00 | 55 | 1008.1 |
| 20260505222032 | 72 | 201 | 1.0 | 9.0 | 0.00 | 0.00 | 0.00 | 56 | 1008.2 |
| 20260505221544 | 73 | 177 | 2.0 | 9.0 | 0.00 | 0.00 | 0.00 | 54 | 1008.4 |
| 20260505221032 | 73 | 168 | 2.0 | 5.0 | 0.00 | 0.00 | 0.00 | 54 | 1008.5 |
| 20260505220532 | 73 | 165 | 1.0 | 7.0 | 0.00 | 0.00 | 0.00 | 54 | 1008.4 |
| 20260505220048 | 74 | 167 | 1.0 | 7.0 | 0.00 | 0.00 | 0.00 | 54 | 1008.5 |
| 20260505215534 | 74 | 202 | 2.0 | 9.0 | 0.00 | 0.00 | 0.00 | 53 | 1008.5 |